This is the latest recevied weather packets stored in our database for station/object KR4DFQ. If no packets are shown the sender has not sent any weather packets the latest 10 day(s).
| Time | Temp. | Humidity | Pressure | Rain* | Wind** | Luminosity | Snow |
|---|---|---|---|---|---|---|---|
| 1787842353 | 33.33° C | 60% | 1017.9 hPa | 0 mm | - | 764 W/m² | - |
| 1787842048 | 33.33° C | 61% | 1017.8 hPa | 0 mm | - | 721 W/m² | - |
| 1787841744 | 33.33° C | 60% | 1017.8 hPa | 0 mm | - | 702 W/m² | - |
| 1787841439 | 33.33° C | 60% | 1017.9 hPa | 0 mm | - | 696 W/m² | - |
| 1787841133 | 33.33° C | 63% | 1017.7 hPa | 0 mm | - | 767 W/m² | - |
| 1787840828 | 33.33° C | 62% | 1017.8 hPa | 0 mm | - | 730 W/m² | - |
| 1787840523 | 32.78° C | 62% | 1017.8 hPa | 0 mm | - | 673 W/m² | - |
| 1787840218 | 32.22° C | 64% | 1017.8 hPa | 0 mm | - | 652 W/m² | - |
| 1787839918 | 32.22° C | 64% | 1017.7 hPa | 0 mm | - | 183 W/m² | - |
| 1787839614 | 32.22° C | 65% | 1017.7 hPa | 0 mm | - | 619 W/m² | - |
| 1787839313 | 32.22° C | 67% | 1017.8 hPa | 0 mm | - | 608 W/m² | - |
| 1787839013 | 31.67° C | 67% | 1017.6 hPa | 0 mm | - | 141 W/m² | - |
| 1787838711 | 32.22° C | 66% | 1017.8 hPa | 0 mm | - | 189 W/m² | - |
| 1787838411 | 32.78° C | 65% | 1017.7 hPa | 0 mm | - | 637 W/m² | - |
| 1787838110 | 32.22° C | 63% | 1017.6 hPa | 0 mm | - | 586 W/m² | - |
| 1787837805 | 32.22° C | 64% | 1017.5 hPa | 0 mm | - | 495 W/m² | - |
| 1787837500 | 31.67° C | 67% | 1017.5 hPa | 0 mm | - | 482 W/m² | - |
| 1787837199 | 31.67° C | 66% | 1017.6 hPa | 0 mm | - | 107 W/m² | - |
| 1787836898 | 32.78° C | 66% | 1017.4 hPa | 0 mm | - | 157 W/m² | - |
| 1787836594 | 32.22° C | 67% | 1017.5 hPa | 0 mm | - | 494 W/m² | - |
| 1787836294 | 32.22° C | 66% | 1017.5 hPa | 0 mm | - | 329 W/m² | - |
| 1787835989 | 32.22° C | 66% | 1017.2 hPa | 0 mm | - | 292 W/m² | - |
| 1787835685 | 32.22° C | 66% | 1017.4 hPa | 0 mm | - | 319 W/m² | - |
| 1787835380 | 31.67° C | 67% | 1017.4 hPa | 0 mm | - | 309 W/m² | - |
| 1787835075 | 31.67° C | 68% | 1017.4 hPa | 0 mm | - | 298 W/m² | - |
* Rain latest hour (hover to see other rain measurements)
** Current wind speed in m/s (hover to see current wind gust speed)